Location: Del Amo
(33.8464°N, 118.2104°W)
Time: 20:06:47
(UTC+00:00)

S-56A Canister/Altair - Pass Details

Date: 15 September 2024
Orbit: 636 x 2487 km, 38.9° (Epoch: 14 October)

Event Time Altitude Azimuth Distance (km) Brightness Sun altitude
Rises 05:53:24 0° 288° (WNW) 3,889 11.7 -44.5°
Reaches altitude 10° 05:55:44 10° 290° (WNW) 3,129 11.1 -44.8°
Enters shadow 06:00:01 40° 299° (WNW) 1,965 9.7 -45.4°
Maximum altitude 06:03:45 75° 16° (NNE) 1,638 - -45.9°
Drops below altitude 10° 06:16:03 10° 102° (ESE) 4,634 - -47.4°
Sets 06:20:15 0° 104° (ESE) 5,844 - -47.9°
